This is the latest recevied weather packets stored in our database for station/object N0FDH. If no packets are shown the sender has not sent any weather packets the latest 1 day(s).
| Time | Temp. | Humidity | Pressure | Rain* | Wind** | Luminosity | Snow |
|---|---|---|---|---|---|---|---|
| 1778056808 | 2.78° C | 60% | 1012.9 hPa | 0 mm | - | 0 W/m² | - |
| 1778056506 | 2.78° C | 60% | 1012.7 hPa | 0 mm | - | 0 W/m² | - |
| 1778055595 | 2.78° C | 61% | 1012.9 hPa | 0 mm | - | 0 W/m² | - |
| 1778055294 | 2.78° C | 63% | 1012.8 hPa | 0 mm | - | 0 W/m² | - |
| 1778054991 | 2.78° C | 63% | 1012.7 hPa | 0 mm | - | 0 W/m² | - |
| 1778054688 | 2.22° C | 60% | 1012.9 hPa | 0 mm | - | 0 W/m² | - |
| 1778054385 | 2.78° C | 60% | 1012.7 hPa | 0 mm | - | 0 W/m² | - |
| 1778054083 | 2.78° C | 61% | 1012.9 hPa | 0 mm | - | 0 W/m² | - |
| 1778053779 | 2.22° C | 61% | 1012.8 hPa | 0 mm | - | 0 W/m² | - |
| 1778052569 | 2.22° C | 59% | 1012.8 hPa | 0 mm | - | 0 W/m² | - |
| 1778052266 | 2.22° C | 59% | 1012.9 hPa | 0 mm | - | 0 W/m² | - |
| 1778051964 | 2.22° C | 60% | 1012.8 hPa | 0 mm | - | 0 W/m² | - |
| 1778051358 | 2.22° C | 61% | 1012.8 hPa | 0 mm | - | 0 W/m² | - |
| 1778051055 | 2.22° C | 62% | 1012.8 hPa | 0 mm | - | 0 W/m² | - |
| 1778050450 | 2.22° C | 60% | 1012.8 hPa | 0 mm | - | 0 W/m² | - |
| 1778050146 | 2.22° C | 61% | 1012.9 hPa | 0 mm | - | 0 W/m² | - |
| 1778049539 | 2.22° C | 62% | 1012.8 hPa | 0 mm | - | 0 W/m² | - |
| 1778049237 | 1.67° C | 65% | 1012.9 hPa | 0 mm | - | 0 W/m² | - |
| 1778048935 | 1.67° C | 66% | 1013.1 hPa | 0 mm | - | 0 W/m² | - |
| 1778048328 | 1.67° C | 63% | 1012.9 hPa | 0 mm | - | 0 W/m² | - |
| 1778048025 | 1.67° C | 65% | 1012.8 hPa | 0 mm | - | 0 W/m² | - |
| 1778047723 | 1.67° C | 65% | 1013 hPa | 0 mm | - | 0 W/m² | - |
| 1778047117 | 1.67° C | 62% | 1012.7 hPa | 0 mm | - | 0 W/m² | - |
| 1778046208 | 1.67° C | 62% | 1012.8 hPa | 0 mm | - | 0 W/m² | - |
| 1778045904 | 1.67° C | 62% | 1012.6 hPa | 0 mm | - | 0 W/m² | - |
* Rain latest hour (hover to see other rain measurements)
** Current wind speed in m/s (hover to see current wind gust speed)